ゲーレルス第2彗星

78P/Gehrels 2 (2026)

English version
Home page
Updated on August 30, 2025

---------------------------------------------------------------------

・ プロフィール

・ 写真集

・ 軌道要素

Epoch 2025 May 5.0 TT = JDT 2460800.5
T 2026 June 25.00287 TT                                 Payne
q   2.0047397            (2000.0)            P               Q
n   0.13660503     Peri.  192.75241     +0.72895630     -0.68232104
a   3.7338620      Node   210.50446     +0.63725354     +0.70588317
e   0.4630922      Incl.    6.25707     +0.25006127     +0.19017607
P   7.22
From 1124 observations 2019 Jan. 1-2025 Apr. 25, mean residual 0".5.
     Nongravitational parameters A1 = -1.37, A2 = -0.5154.

・ 星図

・ 光度変化

        m1 =  2.0 + 5 logΔ + 27.0 log r  [   ,  0]  (              〜2026年 6月25日)
        m1 =  4.0 + 5 logΔ + 20.0 log r  [  0,190]  (2026年 6月25日〜2027年 1月 1日)
        m1 =  0.0 + 5 logΔ + 30.0 log r  [190,375]  (2027年 1月 1日〜2027年 7月 5日)
        m1 = 10.5 + 5 logΔ + 10.0 log r  [375,   ]  (2027年 7月 5日〜              )

---------------------------------------------------------------------

軌道要素はM.P.E.C. 2025-J08に掲載されたものです。
星図はステラナビゲータ Ver.10 (アストロアーツ) で作成したものです。
光度グラフはComet for Windowsで作成したものです。

---------------------------------------------------------------------

Copyright(C) Seiichi Yoshida (comet@aerith.net). All rights reserved.